Temperature
13 12 12 11 11 11 10 10 10 10 9 9 9 9 9 9 9 8 8 8 8 8 8 9 9 9 10 10 11 11 11 11 11 12 13 14 15 15 16 16 16 16 16
13 12 12 11 11 11 10 10 10 9 9 9 9 9 9 9 8 8 8 8 8 8 8 8 8 9 9 10 10 10 11 11 11 12 12 13 14 15 15 15 15 15 15
12 12 11 11 11 10 10 10 9 9 9 9 9 8 8 8 8 8 8 8 8 8 8 8 8 8 8 9 9 10 10 10 11 11 12 12 13 14 14 15 15 15 15
12 12 11 11 10 10 10 9 9 9 9 9 8 8 8 8 8 8 8 8 8 8 8 8 8 7 8 8 8 9 9 10 10 10 11 12 12 12 13 13 14 14 15
12 11 11 10 10 10 9 9 9 9 8 8 8 8 8 8 8 8 8 8 8 8 8 8 8 7 7 7 8 8 9 9 10 10 10 11 11 12 12 13 13 13 13
11 11 10 10 10 9 9 9 9 9 8 8 8 7 7 7 8 7 7 7 7 7 8 8 8 7 7 7 7 7 8 8 9 9 10 10 11 11 12 12 12 12 12
11 11 10 10 9 9 9 8 8 8 8 8 7 7 7 8 8 7 7 7 7 7 7 8 8 8 7 7 7 7 7 8 8 9 9 10 11 11 11 12 12 12 12
11 10 10 9 9 9 8 8 8 8 7 7 7 7 7 8 8 7 7 7 7 7 7 7 7 7 7 7 7 6 7 7 8 8 9 10 10 11 11 11 12 12 12
11 10 9 9 8 8 8 8 7 7 7 7 7 7 7 8 8 7 7 7 7 7 7 7 7 7 7 7 6 6 6 7 7 8 8 9 10 10 11 11 11 11 11
11 10 9 8 8 8 8 7 7 7 7 7 7 7 7 8 8 7 7 7 7 7 6 6 6 6 6 6 6 6 6 6 7 7 8 9 9 10 10 11 11 11 11
11 10 9 8 8 8 7 7 7 7 7 7 8 8 8 7 7 7 7 6 6 6 6 6 6 6 6 6 6 5 6 6 7 7 8 8 9 10 10 10 11 11 11
11 10 9 9 8 7 7 7 7 7 7 8 8 8 8 8 7 7 6 6 6 6 6 6 6 6 6 6 5 5 5 6 6 6 7 8 9 9 10 10 11 11 11
11 10 10 9 8 7 7 7 7 7 7 8 8 8 8 8 7 7 6 6 6 5 6 6 6 5 5 5 5 5 5 5 6 6 7 8 9 9 10 10 10 10 10
11 10 10 9 8 8 7 7 7 7 8 8 8 8 8 8 7 7 7 6 6 6 5 5 5 5 5 5 5 5 5 5 6 6 7 8 8 9 9 9 10 10 10
11 10 9 9 8 8 8 7 7 8 7 7 8 8 8 8 7 7 7 6 6 6 5 5 5 5 5 5 5 5 5 5 6 6 7 8 8 9 9 9 9 9 10
11 10 9 9 8 8 8 8 8 8 8 8 8 8 8 8 7 7 7 6 6 6 5 5 5 5 5 5 5 5 5 5 6 6 7 7 8 8 9 9 9 9 9
11 10 9 9 8 8 7 7 8 9 9 8 8 8 8 8 8 7 7 6 6 6 6 6 6 5 5 5 5 5 6 6 6 7 7 7 8 8 9 9 9 9 9
11 10 9 8 8 7 7 7 7 8 8 9 9 8 8 8 8 7 7 7 7 6 6 6 6 6 6 6 6 6 6 6 6 7 7 7 8 8 8 9 9 9 9
11 10 9 8 8 7 7 7 7 7 8 8 8 8 8 8 8 8 7 7 7 7 6 6 6 6 6 6 6 6 6 6 7 7 7 7 8 8 8 8 9 9 9
10 9 9 8 8 7 7 7 7 7 8 8 8 8 8 8 8 8 7 7 7 7 7 7 7 7 7 7 7 7 7 7 7 7 7 8 8 8 8 8 9 9 9
10 9 8 8 7 7 7 7 7 7 8 8 8 8 8 8 8 7 7 7 7 7 7 7 7 7 7 7 7 7 7 7 8 8 8 8 8 8 8 9 9 9 9
10 9 8 8 7 7 7 7 7 7 7 8 8 8 8 8 8 7 7 7 7 7 7 7 7 8 8 8 8 8 8 8 8 8 8 8 8 9 9 9 8 9 9
9 9 8 7 7 7 7 7 7 7 7 8 8 8 8 8 8 7 7 7 7 7 7 7 7 8 8 8 8 8 8 8 8 8 8 9 9 9 9 9 9 9 9
9 8 8 7 7 6 6 6 7 7 7 7 8 8 8 8 7 7 7 7 7 7 7 7 7 8 8 8 8 8 8 8 8 9 9 9 9 9 9 9 9 9 9
8 8 7 7 6 6 6 6 6 6 7 7 7 7 8 7 7 7 7 7 7 7 7 7 7 7 8 8 8 8 8 8 9 9 9 9 9 9 9 9 9 8 8
7 7 7 6 6 6 6 6 6 6 7 7 7 7 7 7 7 7 7 7 7 7 7 7 7 7 7 8 8 8 8 8 9 9 9 9 9 9 9 9 8 8 8
Wind_Speed
7 7 7 7 6 6 6 7 7 7 7 7 8 8 8 8 6 5 6 6 6 6 5 5 6 5 4 4 4 4 5 5 6 4 3 3 4 3 1 1 2 4 7
7 7 7 7 6 6 7 8 7 8 8 8 8 8 9 9 7 7 8 7 7 8 8 7 8 6 6 5 4 5 5 6 6 6 3 2 2 1 1 2 2 3 4
7 7 7 7 7 8 8 8 8 8 9 9 9 9 10 10 9 9 9 9 9 9 9 9 9 8 8 6 6 6 6 6 6 6 5 2 2 1 2 3 3 3 4
6 7 7 8 8 8 8 8 8 8 9 9 9 10 10 10 11 11 10 10 10 10 9 9 10 10 10 9 8 8 7 6 6 6 6 4 3 3 4 4 4 3 3
6 7 9 8 7 7 8 8 8 8 9 9 10 10 10 10 10 11 10 11 11 11 10 10 10 12 13 11 8 8 7 7 6 6 6 4 4 4 5 5 5 5 3
7 8 8 7 7 7 8 8 8 9 9 9 10 11 11 10 12 15 14 11 11 12 12 11 11 13 15 16 17 15 12 10 9 8 7 7 7 6 6 6 6 6 4
7 8 7 7 7 8 8 8 9 9 9 10 10 11 12 13 16 17 18 13 12 12 13 12 12 12 13 11 14 17 16 17 15 11 10 9 8 7 8 9 9 7 5
6 7 7 7 8 8 8 9 9 9 9 10 11 11 12 13 15 16 17 13 12 13 14 14 14 14 12 12 12 12 13 12 13 13 11 11 10 8 9 9 9 7 5
7 7 7 7 8 8 9 10 9 9 10 10 10 11 12 14 15 15 14 9 10 13 13 13 14 15 15 15 14 14 13 12 13 14 14 14 13 12 9 8 10 10 7
7 7 7 7 8 9 10 10 9 9 10 11 11 11 12 13 15 15 13 7 9 10 10 12 15 16 16 16 15 14 15 13 12 11 12 13 13 12 13 12 11 11 7
6 6 7 7 8 9 10 9 9 10 10 10 12 12 11 12 13 14 12 7 8 9 10 10 10 14 17 17 16 14 15 12 11 12 11 10 10 10 10 11 11 11 9
5 6 7 8 8 8 9 10 9 9 10 10 10 11 9 9 9 10 11 10 9 9 10 9 10 13 16 16 14 14 15 14 10 10 10 10 10 10 9 11 12 11 8
5 7 8 8 8 8 9 10 9 8 8 9 8 9 10 8 7 11 11 11 10 8 9 12 13 14 13 12 15 16 14 11 11 11 11 11 10 10 9 9 10 9 8
6 7 7 8 9 9 8 7 8 8 8 9 9 9 9 9 7 5 5 6 7 7 7 9 10 12 11 10 9 11 11 10 11 11 11 10 9 9 9 9 8 9 8
6 7 8 8 8 9 9 8 9 9 9 10 10 10 10 10 8 6 6 5 5 6 6 5 4 4 5 6 7 8 9 10 11 10 10 10 10 10 9 9 8 9 8
6 7 7 7 7 8 9 10 10 12 15 16 16 14 11 13 13 11 10 10 10 9 5 4 5 4 5 5 6 7 8 10 10 10 10 10 10 10 10 9 9 10 10
7 7 7 7 7 8 8 9 11 11 11 12 12 12 13 13 13 11 9 9 9 7 5 5 5 5 5 5 5 5 6 8 8 9 10 10 10 10 10 10 10 11 10
7 9 8 7 8 8 8 8 8 10 11 10 10 11 11 11 11 10 7 5 5 4 5 5 5 5 5 5 4 4 4 5 6 7 8 9 10 10 11 11 11 11 11
7 6 7 7 8 8 8 8 8 9 9 10 10 9 7 7 8 7 6 5 6 6 5 5 5 5 5 5 4 4 5 5 6 6 7 9 9 10 11 10 10 13 11
6 10 9 7 7 8 7 8 8 8 8 8 9 8 5 3 4 4 4 6 6 7 6 6 5 5 5 4 4 4 5 6 7 6 6 7 8 9 11 12 11 12 11
6 7 9 8 7 7 7 8 8 8 8 8 8 9 9 6 7 7 6 6 7 7 7 6 5 5 4 4 4 5 6 5 6 6 6 7 7 8 8 10 11 11 11
5 5 5 6 6 7 7 7 7 8 8 9 8 8 9 6 6 6 6 6 6 7 7 6 5 5 5 5 5 5 5 6 6 6 6 7 7 8 9 10 10 11 12
5 5 5 5 6 7 7 7 7 7 8 8 8 7 7 6 6 6 6 6 5 6 6 6 6 5 5 5 5 6 6 6 6 7 7 7 8 8 9 10 12 13 13
5 5 5 5 5 5 6 7 7 7 8 8 7 7 7 7 7 7 7 6 5 5 5 5 6 7 8 6 5 6 6 6 6 7 9 9 9 8 9 10 11 13 13
4 3 3 4 5 6 6 7 7 8 8 7 7 8 8 8 7 7 7 6 6 5 6 5 5 6 8 9 8 7 7 9 8 7 8 8 10 10 10 11 11 12 13
3 2 2 3 4 5 6 7 7 8 8 7 7 8 8 8 8 8 7 6 6 5 5 4 5 6 6 6 7 7 7 9 9 9 8 8 10 10 11 10 13 13 14
Wind_Direction
253 252 255 260 259 260 261 265 269 274 276 276 277 280 282 281 271 253 250 250 250 258 264 263 267 268 265 256 243 237 235 230 252 273 274 296 307 296 360 88 138 158 181
254 253 254 260 265 265 265 268 269 273 276 276 278 278 278 278 271 265 266 261 246 248 253 253 260 265 261 258 246 238 236 232 239 265 277 288 293 259 140 108 90 101 117
258 253 257 262 262 262 265 269 270 271 276 279 277 277 278 277 274 270 267 267 258 249 244 243 249 251 256 254 248 244 240 239 233 246 261 257 259 198 146 123 110 104 100
257 253 257 260 259 262 267 270 269 270 274 276 275 274 274 275 275 273 270 269 268 261 249 240 240 240 244 248 248 243 239 239 235 237 247 246 235 200 171 162 153 139 126
255 256 258 262 264 266 269 271 272 272 275 273 276 277 274 274 271 267 264 266 265 267 262 250 242 239 238 238 240 238 233 232 231 230 234 234 225 200 190 171 165 147 128
254 259 265 268 269 270 271 275 278 278 279 278 277 277 276 275 271 269 269 267 265 265 266 262 252 251 248 244 242 239 231 229 228 226 227 227 227 217 193 175 161 163 169
259 266 270 269 271 272 276 279 280 282 281 281 279 277 276 273 269 271 272 270 264 262 261 261 262 255 241 235 238 243 244 238 227 224 228 225 223 217 201 187 180 170 159
267 272 273 271 273 276 277 279 279 280 280 282 282 279 278 277 272 269 272 272 264 261 257 255 255 257 248 233 233 237 240 243 237 233 232 230 227 221 208 201 179 150 124
269 271 272 273 277 280 281 281 281 281 283 284 284 282 280 281 278 274 272 272 265 263 260 255 251 252 247 232 233 237 239 243 243 236 229 230 225 218 201 186 174 167 163
265 268 273 275 276 279 280 281 280 279 282 286 285 282 278 279 278 276 275 268 267 268 265 259 251 247 244 234 234 234 236 236 237 236 230 230 227 220 204 197 187 180 166
264 271 276 276 277 279 279 279 281 284 285 286 286 285 279 273 275 276 275 264 260 268 268 264 256 242 239 237 231 232 230 225 229 230 227 223 217 213 207 201 192 185 176
262 272 278 281 284 287 283 285 284 282 286 289 289 290 285 274 267 273 274 268 259 261 265 265 260 249 242 238 234 229 222 218 226 224 222 217 210 206 202 198 196 193 182
261 273 282 288 288 285 282 284 289 285 283 287 288 290 292 287 274 267 272 276 275 267 265 263 259 253 247 242 234 223 217 219 217 218 217 215 207 200 192 192 191 179 154
261 276 285 291 294 292 285 280 282 285 286 288 288 289 292 290 283 276 276 281 285 284 281 275 267 256 244 237 230 223 216 214 212 215 214 210 199 193 192 187 184 173 162
261 276 286 287 288 294 292 283 279 273 267 273 282 281 284 286 277 261 272 282 285 286 293 280 268 258 241 231 224 215 208 207 210 212 207 200 197 193 191 188 181 171 173
262 277 282 288 291 294 299 303 281 267 272 265 259 259 265 259 268 275 277 280 282 286 281 267 270 268 254 239 223 212 206 206 205 203 201 197 193 190 188 188 184 182 178
248 268 280 285 291 296 300 304 312 311 296 284 278 272 260 265 266 268 276 286 283 277 259 261 263 263 261 242 224 214 203 201 198 198 198 194 190 188 186 187 187 186 182
247 266 275 279 285 290 293 296 299 303 310 310 307 297 287 279 272 266 269 283 274 254 246 255 257 252 252 251 233 216 203 190 191 194 192 189 187 185 185 186 186 184 179
246 261 271 279 283 286 290 293 296 297 296 298 304 305 297 290 279 261 241 241 258 265 259 256 254 253 247 244 234 213 204 201 198 195 191 188 186 184 184 184 181 174 170
246 264 276 282 287 292 294 297 301 302 302 301 302 302 304 297 290 272 237 240 249 258 259 257 254 252 245 230 218 213 208 202 199 198 192 185 185 185 183 177 175 175 173
244 267 282 287 286 290 294 298 301 301 300 301 299 296 289 287 283 276 264 252 248 252 254 254 253 248 238 223 210 205 202 202 199 192 187 185 183 183 180 176 174 171 166
233 255 270 281 288 292 296 298 301 300 300 301 306 310 306 289 283 280 274 266 255 248 245 243 246 243 232 218 206 200 198 194 196 195 190 186 184 180 174 173 171 167 165
227 252 269 280 287 294 301 304 305 305 304 305 307 312 315 309 302 294 287 283 272 261 246 236 240 245 236 223 214 207 204 203 197 189 184 181 178 175 172 172 171 168 169
219 243 263 280 291 298 304 309 310 310 310 311 313 313 312 310 308 306 301 294 285 273 257 240 234 236 235 227 220 217 217 210 195 190 186 180 175 173 171 172 173 173 172
216 236 260 281 295 303 307 311 311 312 313 314 316 316 316 317 316 316 313 307 298 287 278 262 246 239 235 230 224 219 209 199 193 184 180 179 175 173 171 172 172 171 171
202 224 265 292 303 308 311 312 313 314 315 317 318 319 321 322 321 323 321 317 312 300 288 276 256 244 236 228 223 213 193 185 185 181 176 174 173 174 174 175 174 174 172
Height
1508 1507 1505 1503 1501 1498 1496 1494 1491 1489 1487 1484 1482 1480 1479 1477 1476 1474 1473 1472 1471 1470 1470 1470 1470 1471 1472 1473 1474 1475 1476 1476 1475 1474 1475 1476 1477 1479 1480 1482 1485 1488 1491
1504 1503 1501 1499 1497 1494 1492 1489 1487 1484 1482 1480 1477 1475 1473 1472 1470 1469 1468 1467 1465 1465 1464 1464 1464 1464 1465 1466 1467 1468 1470 1471 1471 1470 1471 1472 1473 1475 1476 1479 1481 1484 1488
1500 1498 1496 1495 1492 1490 1487 1484 1482 1479 1476 1474 1471 1469 1467 1465 1464 1463 1462 1460 1459 1458 1458 1457 1457 1458 1458 1459 1460 1461 1463 1465 1466 1466 1467 1468 1469 1471 1473 1475 1477 1481 1484
1496 1494 1492 1490 1487 1485 1482 1479 1476 1473 1470 1467 1465 1462 1460 1458 1457 1456 1455 1454 1453 1452 1451 1451 1450 1450 1451 1452 1453 1454 1456 1458 1460 1461 1462 1464 1465 1467 1469 1471 1474 1476 1480
1491 1489 1487 1485 1482 1479 1476 1473 1470 1467 1464 1461 1458 1455 1453 1451 1449 1448 1447 1446 1445 1445 1444 1444 1444 1443 1444 1445 1446 1447 1449 1451 1453 1455 1457 1459 1461 1462 1464 1467 1470 1473 1476
1487 1484 1482 1479 1476 1473 1470 1467 1464 1460 1457 1454 1451 1448 1446 1444 1443 1441 1440 1439 1438 1437 1437 1436 1436 1436 1436 1437 1439 1440 1442 1444 1446 1448 1450 1453 1455 1458 1460 1462 1466 1469 1473
1482 1479 1477 1474 1470 1467 1464 1461 1457 1454 1450 1447 1444 1442 1439 1438 1436 1435 1434 1432 1431 1430 1429 1429 1428 1429 1429 1429 1430 1432 1434 1436 1439 1441 1443 1446 1450 1453 1455 1457 1460 1464 1468
1477 1474 1471 1468 1464 1461 1458 1455 1451 1448 1444 1441 1438 1436 1433 1431 1430 1428 1427 1425 1423 1422 1421 1421 1420 1420 1421 1421 1422 1423 1425 1428 1431 1433 1436 1440 1444 1447 1450 1452 1455 1459 1464
1471 1468 1465 1462 1458 1455 1452 1449 1445 1442 1438 1435 1433 1430 1427 1425 1424 1422 1420 1417 1415 1414 1413 1412 1411 1411 1412 1413 1413 1414 1415 1418 1423 1426 1429 1433 1437 1441 1444 1447 1450 1454 1458
1466 1463 1459 1456 1452 1449 1446 1442 1439 1436 1433 1430 1427 1425 1422 1419 1417 1415 1413 1410 1407 1406 1404 1403 1402 1402 1403 1404 1404 1404 1406 1409 1414 1418 1421 1425 1429 1434 1437 1440 1444 1447 1451
1461 1457 1454 1450 1447 1443 1440 1437 1434 1431 1427 1425 1422 1419 1416 1414 1411 1408 1406 1403 1400 1398 1396 1394 1393 1393 1393 1394 1395 1396 1398 1403 1406 1410 1413 1417 1422 1426 1430 1434 1438 1442 1446
1456 1452 1448 1445 1441 1438 1435 1432 1429 1426 1422 1419 1417 1414 1411 1408 1405 1402 1399 1397 1394 1391 1389 1387 1386 1385 1385 1386 1387 1388 1391 1395 1398 1401 1405 1409 1413 1418 1423 1428 1432 1437 1441
1451 1447 1443 1440 1437 1433 1430 1427 1424 1421 1418 1414 1411 1408 1405 1402 1399 1396 1393 1390 1388 1385 1383 1381 1379 1378 1378 1378 1379 1381 1384 1387 1390 1393 1396 1401 1406 1412 1418 1422 1427 1432 1436
1446 1443 1439 1435 1432 1429 1426 1423 1419 1416 1413 1410 1406 1403 1400 1397 1394 1390 1388 1385 1383 1380 1378 1375 1374 1372 1371 1371 1372 1374 1376 1379 1383 1386 1390 1396 1401 1406 1411 1416 1421 1425 1430
1442 1438 1435 1431 1428 1425 1422 1419 1415 1412 1409 1405 1402 1399 1395 1392 1389 1386 1383 1380 1378 1376 1373 1371 1369 1367 1366 1365 1366 1368 1370 1373 1377 1381 1386 1390 1395 1400 1404 1410 1414 1419 1424
1438 1435 1431 1428 1424 1421 1417 1414 1411 1408 1404 1401 1398 1395 1391 1388 1385 1382 1379 1376 1373 1372 1370 1367 1366 1364 1362 1361 1362 1363 1365 1368 1371 1375 1380 1384 1389 1394 1398 1404 1408 1414 1419
1434 1431 1427 1424 1421 1417 1413 1409 1405 1402 1400 1397 1394 1390 1387 1384 1381 1378 1375 1372 1370 1368 1366 1364 1363 1361 1360 1359 1359 1360 1361 1364 1368 1371 1375 1380 1384 1389 1393 1398 1403 1409 1414
1430 1427 1424 1420 1417 1414 1410 1406 1403 1398 1395 1391 1389 1386 1383 1379 1377 1374 1371 1369 1367 1365 1363 1362 1360 1359 1358 1357 1357 1358 1360 1362 1365 1368 1372 1376 1379 1384 1389 1393 1398 1403 1409
1426 1423 1420 1417 1413 1410 1407 1403 1399 1395 1392 1388 1385 1382 1379 1375 1373 1370 1367 1365 1363 1362 1360 1359 1358 1357 1357 1356 1356 1357 1358 1360 1362 1365 1369 1372 1376 1380 1384 1389 1393 1399 1404
1422 1419 1416 1413 1409 1406 1403 1399 1395 1392 1388 1385 1381 1378 1374 1371 1368 1366 1364 1362 1360 1358 1357 1356 1356 1355 1355 1355 1356 1356 1357 1359 1361 1363 1367 1370 1373 1377 1381 1385 1390 1395 1400
1417 1415 1412 1408 1405 1402 1399 1395 1392 1388 1385 1382 1378 1375 1372 1368 1365 1362 1360 1358 1356 1355 1354 1353 1353 1353 1353 1354 1355 1355 1357 1358 1360 1362 1365 1368 1371 1375 1379 1383 1388 1392 1397
1412 1410 1407 1404 1401 1398 1395 1391 1388 1385 1382 1379 1375 1372 1369 1365 1362 1359 1356 1354 1352 1351 1350 1350 1350 1350 1351 1352 1353 1354 1356 1357 1359 1361 1364 1367 1370 1373 1377 1381 1385 1390 1394
1407 1405 1402 1400 1397 1394 1391 1387 1384 1381 1378 1375 1372 1369 1366 1362 1359 1356 1353 1350 1348 1347 1346 1346 1346 1347 1348 1349 1351 1352 1354 1356 1358 1360 1363 1365 1368 1371 1375 1379 1383 1387 1392
1401 1399 1397 1395 1392 1389 1386 1383 1380 1377 1375 1372 1369 1366 1363 1359 1356 1353 1349 1346 1344 1343 1342 1342 1342 1343 1344 1346 1348 1350 1352 1354 1356 1358 1361 1363 1366 1370 1373 1377 1381 1385 1389
1396 1395 1393 1391 1388 1385 1382 1379 1376 1374 1371 1369 1366 1363 1360 1357 1353 1350 1346 1343 1341 1339 1337 1337 1337 1338 1340 1342 1344 1347 1349 1351 1354 1356 1359 1362 1365 1368 1371 1375 1379 1383 1387
1392 1390 1389 1386 1384 1380 1377 1374 1372 1370 1368 1366 1363 1361 1357 1354 1350 1347 1344 1340 1337 1335 1333 1333 1333 1334 1336 1338 1340 1343 1346 1349 1352 1354 1357 1360 1363 1366 1370 1373 1377 1380 1384